Flag for Canada Weather past 2 weeks in Fort Liard, Northwest Territories, Canada

Now
58 °F

Refreshingly cool.


Feels Like: 58 °F
Forecast: 48 / 74 °F
Wind: 3 mph from South

Location: Lindberg Landing

Current Time: Sep 21, 2014 at 12:21:20 AM

Latest Report: Sep 20, 2014 at 11:00 PM


Visibility: N/A

Pressure: 29.61 "Hg

Humidity: 56%

Dew point: 42 °F

Location of Fort LiardLocation

Historic Weather in Fort Liard — Graph

°F

Fort Liard temperature yesterday

Maximum temperature yesterday: 67 °F (at 5:00 PM)
Minimum temperature yesterday: 44 °F (at 3:00 AM)
Average temperature yesterday: 54 °F

Past Weeks' High & Low Weather Summary

 TemperatureHumidityPressure
High67 °F (Sep 14, 5:00 PM)100% (Sep 6, 5:00 PM)30.45 "Hg (Sep 6, 5:00 PM)
Low25 °F (Sep 8, 8:00 AM)24% (Sep 10, 6:00 PM)29.31 "Hg (Sep 19, 1:00 AM)
Average44 °F81%29.96 "Hg
* Reported Sep 5 11:00 PM — Sep 20 11:00 PM, Fort Liard, Weather by CustomWeather, © 2014

Note: Actual official high and low records may vary slightly from our data, if they occured in-between our weather recording intervals... More about our weather records

Advertising

Fort Liard weather history for previous 24 hours

 ConditionsComfort  
Time TempWeatherWind HumidityBarometerVisibility
11:00 PM
Sep 20
58 °FRefreshingly cool.3 mph56%29.61 "HgN/A
10:00 PM59 °FRefreshingly cool.2 mph55%29.60 "HgN/A
9:00 PM59 °FRefreshingly cool.3 mph54%29.62 "HgN/A
8:00 PM56 °FCool.1 mph66%29.62 "HgN/A
7:00 PM64 °FMild.3 mph39%29.64 "HgN/A
6:00 PM64 °FMild.5 mph40%29.66 "HgN/A
5:00 PM67 °FMild.7 mph34%29.67 "HgN/A
4:00 PM65 °FMild.5 mph37%29.70 "HgN/A
3:00 PM64 °FMild.5 mph41%29.71 "HgN/A
2:00 PM62 °FRefreshingly cool.3 mph46%29.70 "HgN/A
1:00 PM57 °FCool.1 mph64%29.72 "HgN/A
12:00 PM49 °FCool.1 mph82%29.73 "HgN/A
11:00 AM49 °FCool.1 mph81%29.75 "HgN/A
7:00 AM44 °FQuite cool.2 mph98%29.72 "HgN/A
6:00 AM46 °FCool.1 mph99%29.72 "HgN/A
5:00 AM47 °FCool.No wind98%29.72 "HgN/A
4:00 AM46 °FCool.No wind98%29.71 "HgN/A
3:00 AM44 °FQuite cool.1 mph100%29.70 "HgN/A
2:00 AM46 °FCool.1 mph99%29.69 "HgN/A
1:00 AM47 °FCool.No wind98%29.67 "HgN/A
12:00 AM47 °FCool.No wind98%29.66 "HgN/A
Weather by CustomWeather, © 2014

See weather overviewHow to use our weather pages